This demonstration page uses our WeatherBlox Daily Observations layout. Learn more.

Left ArrowRight Arrow

38.20091, -84.87328

Hourly Observations for July 23, 2015

Temp ( °F °C ) Dew Point ( °F °C ) Humidity (%) Winds ( mph kmh ) Pressure ( in mb ) Visibility ( mi km ) Precip ( " mm )
12:53 am 00:53 Clear 66 18.9 60 15.6 81 81 Calm 29.97 1015 10 16 0.00 0.00
1:53 am 01:53 Clear 64 17.8 60 15.6 87 87 Calm 29.97 1015 10 16 0.00 0.00
2:53 am 02:53 Clear 63 17.2 59 15 87 87 Calm 29.96 1015 10 16 0.00 0.00
3:53 am 03:53 Clear 63 17.2 59 15 87 87 Calm 29.96 1015 10 16 0.00 0.00
4:53 am 04:53 Partly Cloudy 63 17.2 59 15 87 87 Calm 29.96 1015 10 16 0.00 0.00
5:53 am 05:53 Cloudy 65 18.3 60 15.6 84 84 Calm 29.95 1014 10 16 0.00 0.00
6:53 am 06:53 Cloudy 66 18.9 59 15 78 78 ENE 5 7 29.96 1015 10 16 0.00 0.00
7:53 am 07:53 Cloudy 68 20 60 15.6 76 76 ENE 3 6 29.97 1015 10 16 0.00 0.00
8:53 am 08:53 Cloudy 70 21.1 60 15.6 71 71 ESE 5 7 29.98 1015 10 16 0.00 0.00
9:53 am 09:53 Sunny 74 23.3 60 15.6 62 62 E 6 9 29.98 1015 N/A 0.00 0.00
10:53 am 10:53 Sunny 78 25.6 60 15.6 54 54 E 8 13 29.98 1015 N/A 0.00 0.00
11:53 am 11:53 Sunny 81 27.2 59 15 47 47 VRB 5 7 29.97 1015 10 16 0.00 0.00
12:53 pm 12:53 Mostly Sunny 82 27.8 60 15.6 47 47 VRB 5 7 29.97 1015 10 16 0.00 0.00
1:53 pm 13:53 Mostly Cloudy 82 27.8 60 15.6 47 47 VRB 6 9 29.97 1015 10 16 0.00 0.00
2:53 pm 14:53 Sunny 83 28.3 61 16.1 48 48 NE 9 15 29.95 1014 10 16 0.00 0.00
3:53 pm 15:53 Mostly Sunny 82 27.8 60 15.6 47 47 NE 7 11 29.93 1014 10 16 0.00 0.00
4:53 pm 16:53 Mostly Cloudy 85 29.4 61 16.1 45 45 NNW 6 9 29.93 1014 10 16 0.00 0.00
5:53 pm 17:53 Mostly Sunny 85 29.4 60 15.6 43 43 NE 8 13 29.93 1013 10 16 0.00 0.00
6:53 pm 18:53 Mostly Cloudy 84 28.9 59 15 43 43 NE 7 11 29.92 1013 10 16 0.00 0.00
7:53 pm 19:53 Mostly Sunny 81 27.2 59 15 47 47 NNE 6 9 29.93 1014 10 16 0.00 0.00
8:53 pm 20:53 Sunny 78 25.6 59 15 52 52 NNE 3 6 29.94 1014 10 16 0.00 0.00
9:53 pm 21:53 Clear 76 24.4 59 15 56 56 NNE 3 6 29.96 1015 10 16 0.00 0.00
10:53 pm 22:53 Clear 71 21.7 60 15.6 68 68 undefined N/A 29.97 1015 10 16 0.00 0.00
11:53 pm 23:53 Clear 68 20 61 16.1 78 78 Calm 29.97 1015 10 16 0.00 0.00

Powered by AerisWeather